Hangzhou Xiaoshan International Airport
ZSHC : now visible

Airfield :











YOU CAN JOIN US ON...

 
LOGIN :

Register | Disclaimer

   EN    FR    IT 

 









Legend :    VFR   Marginal VFR   IFR   Intensive IFR   Very Intensive IFR
Visi :
Ceiling :
>= 8 km
>= 3000ft
5 to 8 km
1000 to 3000 ft
1500m to 5 km
500 to 1000 ft
800 to 1500m
200 to 500 ft
< 800m
< 200 ft
Symbols :   Thunderstorms  Fog  Heavy snow  Heavy precipitations  Wind > 20 kt






- Airport Elevation : 23 ft
- IATA code : HGH


ZSHC - Hangzhou Xiaoshan International

CURRENT METAR :
  • 061100Z 07003MPS CAVOK 24/21 Q1008 NOSIG

EXPIRED METARs :
  • 061030Z 08004MPS CAVOK 24/21 Q1007 NOSIG
  • 061000Z 08004MPS 9999 FEW023 25/21 Q1008 NOSIG
  • 060930Z 10004MPS 9999 SCT023 25/21 Q1007 NOSIG
  • 060900Z 09005MPS 050V110 9999 SCT023 26/21 Q1007 NOSIG
  • 060830Z 07006MPS 9999 SCT023 26/21 Q1007 NOSIG

TAF TAF ZSHC
Valid from the 06 at 12:00 until the 07 at 12:00 UTC


060909Z 0612/0712 08003MPS 3000 BR SCT023 TX28/0706Z TN20/0621Z
ZSHA FIR / Asia



MET'MAP, your aeronautical weather chart ! - Copyright ORBIFLY December 2007 - Disclaimer

ORBIFLY MET'MAP TEAM :

Programming & Development : Alexandra Zaïnal
Concept & original design : Baudouin d'Aumeries
Assistance for programming : Marc-Olivier Méhu
Technical & hardware support : Manuel Goepfert

Contact : metmap@orbifly.com




SOURCES & CREDITS :

   NOAA       Earth
Advisory